FW6429 Weather Reports


time (UTC)temp
C
wind
direction
speed
KPH
gust
KPH
rain 1hr
cm
rain 24hr
cm
rain mn
cm
humidity
%
barometer
mb
20260505091545 6 188 3.2 11.3 0.00 0.00 0.00 89 1010.7
20260505090048 6 241 9.7 17.7 0.00 0.00 0.00 89 1010.4
20260505084535 6 228 11.3 22.5 0.00 0.00 0.00 89 1010.2
20260505083035 6 212 12.9 19.3 0.00 0.00 0.00 89 1010.0
20260505081533 6 239 12.9 25.7 0.00 0.00 0.00 89 1009.8
20260505080030 6 228 11.3 19.3 0.00 0.00 0.00 88 1009.6
20260505074519 6 239 11.3 24.1 0.00 0.00 0.00 87 1009.4
20260505073017 6 225 12.9 17.7 0.00 0.00 0.00 86 1009.3
20260505071523 7 234 11.3 24.1 0.00 0.00 0.00 86 1009.0
20260505070011 6 236 11.3 22.5 0.00 0.00 0.00 86 1008.8
20260505064508 7 235 8.0 22.5 0.00 0.00 0.00 85 1008.5
20260505063003 7 240 9.7 24.1 0.00 0.00 0.00 85 1008.2
20260505061503 7 227 4.8 9.7 0.00 0.00 0.00 85 1008.2
20260505060100 7 224 6.4 12.9 0.00 0.00 0.00 85 1007.8
20260505054614 7 221 3.2 12.9 0.00 0.00 0.00 83 1007.6
20260505053053 7 224 4.8 9.7 0.00 0.00 0.00 82 1007.3
20260505051551 7 228 6.4 12.9 0.00 0.00 0.00 82 1007.1
20260505041540 8 188 8.0 19.3 0.00 0.00 0.00 81 1006.3
20260505040040 8 262 6.4 17.7 0.00 0.00 0.00 81 1006.1
20260505034534 9 181 9.7 25.7 0.00 0.00 0.00 80 1005.8
20260505033040 9 249 12.9 30.6 0.00 0.00 0.00 80 1005.5
20260505031528 9 229 14.5 40.2 0.00 0.00 0.00 79 1004.9
20260505030024 9 230 14.5 32.2 0.00 0.00 0.00 80 1004.6
20260505024547 9 190 11.3 22.5 0.00 0.00 0.00 79 1004.4
20260505023021 8 213 8.0 24.1 0.00 0.00 0.00 80 1004.3
20260505021538 8 199 9.7 22.5 0.00 0.00 0.00 79 1004.3
20260505020019 8 179 4.8 17.7 0.00 0.00 0.00 78 1004.1
20260505014523 8 245 4.8 14.5 0.00 0.00 0.00 78 1004.1
20260505013017 9 196 11.3 22.5 0.00 0.00 0.00 77 1004.1
20260505011518 10 239 16.1 29.0 0.00 0.00 0.00 77 1004.1
20260505010017 10 221 16.1 32.2 0.00 0.00 0.00 76 1004.1
20260505004524 10 230 11.3 27.4 0.00 0.00 0.00 73 1004.2
20260505003014 10 223 20.9 38.6 0.00 0.00 0.00 70 1004.0
20260505001514 10 223 19.3 45.1 0.00 0.00 0.00 68 1003.8
20260505000011 10 200 6.4 16.1 0.00 0.00 0.00 69 1003.5
20260504234509 10 190 3.2 12.9 0.00 0.00 0.00 71 1003.2
20260504233007 9 217 4.8 11.3 0.00 0.00 0.00 70 1003.0
20260504231505 10 201 3.2 12.9 0.00 0.00 0.00 69 1002.8
20260504230005 10 215 6.4 24.1 0.00 0.00 0.00 66 1002.7
20260504224507 10 242 12.9 32.2 0.00 0.00 0.00 65 1002.7
20260504223002 11 239 11.3 27.4 0.00 0.00 0.00 64 1002.5
20260504221608 11 174 12.9 30.6 0.00 0.00 0.00 64 1002.2
20260504220135 11 256 16.1 37.0 0.00 0.00 0.00 63 1002.1
20260504214556 11 235 17.7 40.2 0.00 0.00 0.00 64 1002.1
20260504213113 11 227 17.7 37.0 0.00 0.00 0.00 63 1002.1
20260504211551 11 248 22.5 41.8 0.00 0.00 0.00 63 1001.9
20260504210049 11 232 20.9 46.7 0.00 0.00 0.00 64 1001.5
20260504204600 11 240 24.1 48.3 0.00 0.00 0.00 63 1001.3
20260504203044 11 225 27.4 49.9 0.00 0.00 0.00 65 1001.0
20260504201540 11 234 30.6 43.5 0.00 0.00 0.00 68 1000.7
20260504200043 11 239 24.1 46.7 0.00 0.00 0.00 72 1000.4
20260504194540 11 250 25.7 46.7 0.00 0.00 0.00 75 1000.1
20260504193036 11 254 22.5 46.7 0.00 0.00 0.00 77 999.7
20260504191531 10 272 24.1 40.2 0.00 0.00 0.00 76 999.5
20260504190035 9 225 25.7 45.1 0.00 0.00 0.00 79 999.4
20260504184533 9 252 27.4 43.5 0.00 0.00 0.00 80 999.1
20260504183022 8 246 24.1 37.0 0.00 0.00 0.00 82 998.8
20260504181518 7 234 30.6 45.1 0.00 0.00 0.00 84 998.7
20260504180017 7 248 20.9 41.8 0.00 0.00 0.00 85 998.6
20260504174515 7 235 24.1 35.4 0.00 0.00 0.00 86 998.4
20260504173013 7 221 19.3 43.5 0.00 0.00 0.00 88 998.1
20260504171511 6 248 25.7 43.5 0.00 0.00 0.00 88 997.8
20260504160106 6 231 27.4 56.3 0.00 0.00 0.00 87 996.1